ランキン彗星

C/2021 C1 ( Rankin )

English version
Home page
Updated on June 14, 2021

---------------------------------------------------------------------

・ プロフィール

発見日 2021年2月11日
発見光度 19.7等
発見者 David Rankin (Mt. Lemmon Survey)

・ 写真集

・ 軌道要素

Epoch 2020 Dec. 17.0 TT = JDT 2459200.5
T 2020 Dec. 7.13994 TT                                  Rudenko
q   3.4814404            (2000.0)            P               Q
z  +0.0000862      Peri.  336.31365     -0.87061879     -0.48663773
 +/-0.0000556      Node   186.89243     -0.29712488     +0.40323508
e   0.9996999      Incl.  143.03836     -0.39209657     +0.77497432
From 150 observations 2021 Feb. 11-May 13, mean residual 0".6.

・ 光度変化

        m1 = 11.0 + 5 logΔ + 10.0 log r

---------------------------------------------------------------------

軌道要素はM.P.E.C. 2021-L04に掲載されたものです。
光度グラフはComet for Windowsで作成したものです。

---------------------------------------------------------------------

Copyright(C) Seiichi Yoshida (comet@aerith.net). All rights reserved.